FW9909 Weather Reports


time (UTC)temp
C
wind
direction
speed
KPH
gust
KPH
rain 1hr
cm
rain 24hr
cm
rain mn
cm
humidity
%
barometer
mb
20260906172539 37 4 4.8 9.7 0.00 0.00 0.00 36 1015.4
20260906171517 37 348 3.2 8.0 0.00 0.00 0.00 38 1015.5
20260906170535 37 33 3.2 9.7 0.00 0.00 0.00 39 1015.6
20260906165533 37 11 4.8 9.7 0.00 0.00 0.00 40 1015.7
20260906164551 36 40 1.6 6.4 0.00 0.00 0.00 41 1015.8
20260906163530 37 27 4.8 8.0 0.00 0.00 0.00 40 1015.9
20260906162527 37 336 1.6 4.8 0.00 0.00 0.00 41 1016.0
20260906161526 36 294 3.2 6.4 0.00 0.00 0.00 43 1016.0
20260906160524 35 25 4.8 8.0 0.00 0.00 0.00 44 1015.9
20260906155522 35 20 4.8 8.0 0.00 0.00 0.00 44 1015.9
20260906154520 35 26 4.8 11.3 0.00 0.00 0.00 43 1016.0
20260906153518 36 305 3.2 6.4 0.00 0.00 0.00 43 1015.8
20260906152516 36 332 3.2 8.0 0.00 0.00 0.00 43 1015.8
20260906151535 35 8 0.0 3.2 0.00 0.00 0.00 45 1015.8
20260906150533 34 310 1.6 4.8 0.00 0.00 0.00 46 1015.8
20260906145531 35 301 1.6 4.8 0.00 0.00 0.00 46 1015.7
20260906144529 33 323 1.6 4.8 0.00 0.00 0.00 49 1015.7
20260906143527 32 327 3.2 3.2 0.00 0.00 0.00 52 1015.8
20260906142545 31 338 3.2 4.8 0.00 0.00 0.00 53 1015.9
20260906141543 31 336 1.6 3.2 0.00 0.00 0.00 54 1015.8
20260906140521 31 327 1.6 3.2 0.00 0.00 0.00 56 1015.8
20260906135519 30 56 1.6 3.2 0.00 0.00 0.00 60 1015.8
20260906134518 28 53 1.6 3.2 0.00 0.00 0.00 62 1015.7
20260906133516 27 38 3.2 6.4 0.00 0.00 0.00 66 1015.7
20260906132534 27 326 3.2 9.7 0.00 0.00 0.00 71 1015.6
20260906131532 26 100 3.2 6.4 0.00 0.00 0.00 72 1015.6
20260906130530 25 31 4.8 8.0 0.00 0.00 0.00 74 1015.4
20260906125528 24 62 3.2 4.8 0.00 0.00 0.00 79 1015.3
20260906124526 23 66 3.2 6.4 0.00 0.00 0.00 82 1015.3
20260906123525 22 80 3.2 6.4 0.00 0.00 0.00 85 1015.2
20260906122522 22 73 1.6 4.8 0.00 0.00 0.00 86 1014.9
20260906121541 22 122 1.6 6.4 0.00 0.00 0.00 85 1014.9
20260906120519 22 198 3.2 6.4 0.00 0.00 0.00 86 1014.8
20260906115517 22 30 1.6 3.2 0.00 0.00 0.00 84 1014.6
20260906114515 22 140 3.2 4.8 0.00 0.00 0.00 85 1014.5
20260906113533 22 66 1.6 4.8 0.00 0.00 0.00 85 1014.5
20260906112551 22 22 4.8 11.3 0.00 0.00 0.00 84 1014.5
20260906111529 22 45 3.2 6.4 0.00 0.00 0.00 84 1014.4
20260906110527 22 81 3.2 6.4 0.00 0.00 0.00 83 1014.5
20260906105526 22 62 1.6 4.8 0.00 0.00 0.00 83 1014.4
20260906104524 22 20 6.4 12.9 0.00 0.00 0.00 82 1014.2
20260906103522 23 57 3.2 6.4 0.00 0.00 0.00 82 1014.4
20260906102520 23 56 4.8 6.4 0.00 0.00 0.00 83 1014.3
20260906101519 23 78 3.2 6.4 0.00 0.00 0.00 81 1014.3
20260906100536 23 116 4.8 6.4 0.00 0.00 0.00 81 1014.2
20260906095534 23 85 3.2 6.4 0.00 0.00 0.00 80 1014.3
20260906094533 23 49 4.8 6.4 0.00 0.00 0.00 80 1014.2
20260906093531 23 34 4.8 8.0 0.00 0.00 0.00 80 1014.2
20260906092609 23 37 1.6 4.8 0.00 0.00 0.00 80 1014.1
20260906091527 23 42 1.6 3.2 0.00 0.00 0.00 79 1014.1
20260906090525 23 34 1.6 3.2 0.00 0.00 0.00 78 1014.1
20260906085523 23 42 1.6 3.2 0.00 0.00 0.00 78 1014.0
20260906084542 23 60 1.6 3.2 0.00 0.00 0.00 77 1013.9
20260906083520 23 45 1.6 3.2 0.00 0.00 0.00 76 1014.0
20260906082538 23 47 1.6 3.2 0.00 0.00 0.00 76 1014.0
20260906081536 24 43 1.6 3.2 0.00 0.00 0.00 75 1013.9
20260906080534 24 37 0.0 1.6 0.00 0.00 0.00 74 1014.0
20260906075532 24 52 3.2 3.2 0.00 0.00 0.00 73 1014.0
20260906074530 25 39 1.6 3.2 0.00 0.00 0.00 72 1013.8
20260906073528 25 39 3.2 4.8 0.00 0.00 0.00 72 1013.9
20260906072526 25 37 0.0 1.6 0.00 0.00 0.00 72 1014.1
20260906071524 25 46 1.6 3.2 0.00 0.00 0.00 71 1014.1
20260906070523 25 36 0.0 1.6 0.00 0.00 0.00 69 1014.1
20260906065521 25 36 1.6 3.2 0.00 0.00 0.00 69 1014.1
20260906064519 26 40 0.0 3.2 0.00 0.00 0.00 68 1014.2
20260906063537 26 23 0.0 1.6 0.00 0.00 0.00 66 1014.2
20260906062515 26 42 1.6 3.2 0.00 0.00 0.00 64 1014.2
20260906061533 26 37 3.2 4.8 0.00 0.00 0.00 64 1014.2
20260906060532 27 35 1.6 4.8 0.00 0.00 0.00 63 1014.1
20260906055529 27 28 3.2 4.8 0.00 0.00 0.00 63 1014.2
20260906054528 26 39 1.6 4.8 0.00 0.00 0.00 63 1014.2
20260906053546 26 28 1.6 4.8 0.00 0.00 0.00 64 1014.2
20260906052544 27 35 1.6 3.2 0.00 0.00 0.00 62 1014.0
20260906051522 27 38 1.6 3.2 0.00 0.00 0.00 61 1014.0
20260906050600 27 39 1.6 3.2 0.00 0.00 0.00 61 1013.9
20260906045518 27 40 3.2 4.8 0.00 0.00 0.00 60 1013.9
20260906044516 27 39 3.2 4.8 0.00 0.00 0.00 60 1013.9
20260906043535 27 41 1.6 4.8 0.00 0.00 0.00 59 1014.0
20260906042533 28 45 3.2 4.8 0.00 0.00 0.00 59 1014.1
20260906042025 27 34 3.2 4.8 0.00 0.00 0.00 60 1014.1
20260906041104 27 39 1.6 3.2 0.00 0.00 0.00 60 1014.1
20260906040022 28 38 3.2 4.8 0.00 0.00 0.00 60 1013.9
20260906035020 28 40 3.2 4.8 0.00 0.00 0.00 60 1014.0
20260906034018 28 45 3.2 4.8 0.00 0.00 0.00 60 1014.0
20260906033016 28 42 3.2 4.8 0.00 0.00 0.00 60 1013.9
20260906032034 28 59 1.6 3.2 0.00 0.00 0.00 59 1013.8
20260906031032 28 37 3.2 4.8 0.00 0.00 0.00 59 1013.9
20260906030031 28 45 3.2 4.8 0.00 0.00 0.00 59 1013.8
20260906025029 29 35 0.0 3.2 0.00 0.00 0.00 58 1013.7
20260906024027 30 60 1.6 4.8 0.00 0.00 0.00 56 1013.6
20260906023025 30 55 3.2 6.4 0.00 0.00 0.00 55 1013.4
20260906022023 30 45 3.2 6.4 0.00 0.00 0.00 54 1013.3
20260906021021 30 42 3.2 6.4 0.00 0.00 0.00 53 1013.2
20260906020019 30 54 4.8 9.7 0.00 0.00 0.00 52 1013.0
20260906015037 31 38 3.2 6.4 0.00 0.00 0.00 51 1012.9
20260906014035 31 27 3.2 8.0 0.00 0.00 0.00 50 1012.8
20260906013034 32 42 4.8 9.7 0.00 0.00 0.00 48 1012.7
20260906012052 32 35 3.2 6.4 0.00 0.00 0.00 47 1012.7
20260906011030 32 37 4.8 11.3 0.00 0.00 0.00 45 1012.7
20260906010028 33 26 1.6 3.2 0.00 0.00 0.00 45 1012.5
20260906005026 33 16 1.6 3.2 0.00 0.00 0.00 44 1012.5
20260906004025 33 21 3.2 4.8 0.00 0.00 0.00 43 1012.5
20260906003022 34 29 3.2 6.4 0.00 0.00 0.00 42 1012.5
20260906002021 35 33 4.8 6.4 0.00 0.00 0.00 40 1012.4
20260906001019 35 33 4.8 9.7 0.00 0.00 0.00 37 1012.5
20260906000017 36 4 0.0 1.6 0.00 0.00 0.00 34 1012.5
20260905235035 36 7 0.0 3.2 0.00 0.00 0.00 34 1012.4
20260905234033 36 10 0.0 3.2 0.00 0.00 0.00 33 1012.3
20260905233031 37 18 1.6 3.2 0.00 0.00 0.00 32 1012.4
20260905232029 37 29 1.6 3.2 0.00 0.00 0.00 31 1012.4
20260905231027 38 325 1.6 6.4 0.00 0.00 0.00 30 1012.4
20260905230106 38 338 3.2 8.0 0.00 0.00 0.00 29 1012.3
20260905225024 39 356 1.6 6.4 0.00 0.00 0.00 29 1012.3
20260905224022 38 14 4.8 8.0 0.00 0.00 0.00 29 1012.2
20260905223020 40 1 1.6 3.2 0.00 0.00 0.00 28 1012.2
20260905222020 40 305 4.8 8.0 0.00 0.00 0.00 29 1012.3
20260905221016 40 286 3.2 6.4 0.00 0.00 0.00 29 1012.3
20260905220034 40 27 3.2 9.7 0.00 0.00 0.00 29 1012.5
20260905215053 41 337 3.2 6.4 0.00 0.00 0.00 29 1012.5
20260905214031 40 284 3.2 8.0 0.00 0.00 0.00 30 1012.5
20260905213029 38 328 1.6 6.4 0.00 0.00 0.00 31 1012.6
20260905212027 38 349 3.2 6.4 0.00 0.00 0.00 32 1012.8
20260905211025 39 35 3.2 8.0 0.00 0.00 0.00 32 1012.9
20260905210023 40 58 3.2 8.0 0.00 0.00 0.00 31 1013.2
20260905205021 40 32 3.2 8.0 0.00 0.00 0.00 32 1013.3
20260905204019 40 353 3.2 8.0 0.00 0.00 0.00 31 1013.5
20260905203017 40 281 3.2 8.0 0.00 0.00 0.00 32 1013.6
20260905202016 40 301 4.8 9.7 0.00 0.00 0.00 32 1013.7
20260905201034 39 359 1.6 4.8 0.00 0.00 0.00 33 1013.9
20260905200032 38 41 4.8 9.7 0.00 0.00 0.00 34 1014.0
20260905195030 40 3 4.8 9.7 0.00 0.00 0.00 33 1014.1
20260905194028 39 272 3.2 9.7 0.00 0.00 0.00 33 1014.2
20260905193027 39 167 3.2 11.3 0.00 0.00 0.00 33 1014.3
20260905192024 38 287 3.2 6.4 0.00 0.00 0.00 35 1014.3
20260905191023 38 23 4.8 9.7 0.00 0.00 0.00 35 1014.5
20260905190021 38 150 3.2 8.0 0.00 0.00 0.00 36 1014.9
20260905185019 37 345 4.8 9.7 0.00 0.00 0.00 37 1015.0
20260905184017 37 44 6.4 9.7 0.00 0.00 0.00 38 1015.1
20260905183035 36 20 4.8 11.3 0.00 0.00 0.00 39 1015.0
20260905182033 37 76 4.8 8.0 0.00 0.00 0.00 37 1015.2
20260905181031 37 196 1.6 4.8 0.00 0.00 0.00 36 1015.5
20260905180030 38 13 6.4 14.5 0.00 0.00 0.00 37 1015.5
20260905175048 37 307 3.2 8.0 0.00 0.00 0.00 37 1015.6
20260905174046 36 1 4.8 11.3 0.00 0.00 0.00 39 1015.8
20260905173024 36 309 4.8 9.7 0.00 0.00 0.00 40 1015.9